Location: Azul
(36.7830°S, 59.8500°W)
Time: 01:13:43
(UTC-03:00)

NOAA 15 - Pass Details

Date: 23 October 2021
Orbit: 797 x 813 km, 98.7° (Epoch: 30 November)

Event Time Altitude Azimuth Distance (km) Brightness Sun altitude
Rises 21:48:03 0° 182° (S) 3,340 8.4 -26.3°
Reaches altitude 10° 21:50:49 10° 195° (SSW) 2,404 7.8 -26.7°
Maximum altitude 21:54:56 24° 246° (WSW) 1,645 6.8 -27.3°
Drops below altitude 10° 21:59:02 10° 297° (WNW) 2,388 7.2 -27.9°
Sets 22:01:47 0° 311° (NW) 3,313 7.9 -28.3°
